This is the latest recevied weather packets stored in our database for station/object HP1COO-13. If no packets are shown the sender has not sent any weather packets the latest 10 day(s).
| Time | Temp. | Humidity | Pressure | Rain* | Wind** | Luminosity | Snow |
|---|---|---|---|---|---|---|---|
| 1787864577 | 27.22° C | 99% | 1004.2 hPa | 21.59 mm | - | - | - |
| 1787863944 | 26.67° C | 98% | 1004.3 hPa | 23.11 mm | - | - | - |
| 1787863311 | 26.67° C | 98% | 1004.2 hPa | 22.1 mm | - | - | - |
| 1787862678 | 27.22° C | 98% | 1004.7 hPa | 13.21 mm | - | - | - |
| 1787862045 | 27.22° C | 98% | 1004.5 hPa | 12.7 mm | - | - | - |
| 1787860779 | 27.22° C | 97% | 1004.6 hPa | 1.02 mm | - | - | - |
| 1787860146 | 27.22° C | 97% | 1004.6 hPa | 0.51 mm | - | - | - |
| 1787859520 | 27.22° C | 99% | 1004.4 hPa | 2.79 mm | - | - | - |
| 1787858247 | 26.67° C | 98% | 1004.5 hPa | 13.46 mm | - | - | - |
| 1787857614 | 26.67° C | 98% | 1004.5 hPa | 19.56 mm | - | - | - |
| 1787856981 | 26.67° C | 98% | 1004.6 hPa | 24.64 mm | - | - | - |
| 1787856348 | 26.11° C | 98% | 1004.5 hPa | 23.88 mm | - | - | - |
| 1787855715 | 26.11° C | 97% | 1004.6 hPa | 24.64 mm | - | - | - |
| 1787855082 | 25.56° C | 96% | 1005.2 hPa | 17.27 mm | - | - | - |
| 1787854449 | 25.56° C | 95% | 1005.2 hPa | 17.53 mm | - | - | - |
| 1787853816 | 27.22° C | 93% | 1005.4 hPa | 8.89 mm | - | - | - |
| 1787853183 | 27.78° C | 87% | 1005.5 hPa | 6.6 mm | - | - | - |
| 1787852550 | 29.44° C | 88% | 1005.5 hPa | 5.08 mm | - | - | - |
| 1787851917 | 30.56° C | 85% | 1005.2 hPa | 5.08 mm | - | - | - |
| 1787851284 | 31.67° C | 80% | 1005.5 hPa | 1.27 mm | - | - | - |
| 1787850018 | 33.89° C | 69% | 1005.8 hPa | 0 mm | - | - | - |
| 1787849385 | 33.89° C | 69% | 1005.7 hPa | 0 mm | - | - | - |
| 1787848752 | 33.33° C | 70% | 1005.8 hPa | 0 mm | - | - | - |
| 1787848125 | 33.33° C | 71% | 1005.9 hPa | 0 mm | - | - | - |
| 1787847486 | 32.78° C | 72% | 1006.2 hPa | 0 mm | - | - | - |
* Rain latest hour (hover to see other rain measurements)
** Current wind speed in m/s (hover to see current wind gust speed)